Previsão horária em Almenar

Hoje, 28 Janeiro, Quinta-feira

Tempo Temperatura Precipitação Vento Pressão Humidade
00:00 +11°C° 0 mm 1 m/s 738 mmHg 86%
01:00 +10°C° 0 mm 1 m/s 738 mmHg 87%
02:00 +10°C° 0 mm 1 m/s 737 mmHg 87%
03:00 +10°C° 0 mm 1 m/s 737 mmHg 88%
04:00 +10°C° 0 mm 1 m/s 737 mmHg 88%
05:00 +9°C° 0 mm 1 m/s 737 mmHg 88%
06:00 +9°C° 0 mm 1 m/s 737 mmHg 89%
07:00 +10°C° 0 mm 1 m/s 737 mmHg 86%
08:00 +11°C° 0 mm 1 m/s 737 mmHg 83%
09:00 +11°C° 0 mm 0 m/s 737 mmHg 80%
10:00 +14°C° 0 mm 1 m/s 737 mmHg 75%
11:00 +15°C° 0 mm 2 m/s 737 mmHg 69%
12:00 +17°C° 0 mm 3 m/s 737 mmHg 64%
13:00 +18°C° 0 mm 3 m/s 737 mmHg 63%
14:00 +18°C° 0 mm 3 m/s 736 mmHg 61%
15:00 +19°C° 0 mm 3 m/s 736 mmHg 60%
16:00 +17°C° 0 mm 2 m/s 736 mmHg 66%
17:00 +15°C° 0 mm 2 m/s 736 mmHg 72%
18:00 +14°C° 0 mm 1 m/s 736 mmHg 78%
19:00 +13°C° 0 mm 1 m/s 736 mmHg 79%
20:00 +13°C° 0 mm 1 m/s 736 mmHg 80%
21:00 +12°C° 0 mm 1 m/s 736 mmHg 80%
22:00 +12°C° 0 mm 1 m/s 736 mmHg 81%
23:00 +12°C° 0 mm 1 m/s 736 mmHg 82%

Amanhã, 29 Janeiro, Sexta-feira

Tempo Temperatura Precipitação Vento Pressão Humidade
00:00 +12°C° 0 mm 1 m/s 736 mmHg 82%
01:00 +12°C° 0 mm 2 m/s 735 mmHg 82%
02:00 +10°C° 0 mm 2 m/s 735 mmHg 82%
03:00 +10°C° 0 mm 2 m/s 734 mmHg 81%
04:00 +10°C° 0 mm 2 m/s 734 mmHg 83%
05:00 +10°C° 0 mm 3 m/s 734 mmHg 85%
06:00 +10°C° 0 mm 3 m/s 734 mmHg 87%
07:00 +11°C° 0 mm 3 m/s 734 mmHg 84%
08:00 +12°C° 0 mm 4 m/s 734 mmHg 80%
09:00 +13°C° 0 mm 4 m/s 735 mmHg 77%
10:00 +15°C° 0 mm 6 m/s 735 mmHg 69%
11:00 +16°C° 0 mm 7 m/s 735 mmHg 61%
12:00 +18°C° 0 mm 8 m/s 735 mmHg 52%
13:00 +18°C° 0 mm 8 m/s 735 mmHg 52%
14:00 +18°C° 0 mm 8 m/s 734 mmHg 51%
15:00 +18°C° 0 mm 7 m/s 734 mmHg 51%
16:00 +17°C° 0 mm 6 m/s 734 mmHg 57%
17:00 +15°C° 0 mm 5 m/s 734 mmHg 63%
18:00 +13°C° 0 mm 4 m/s 734 mmHg 69%
19:00 +13°C° 0 mm 3 m/s 734 mmHg 71%
20:00 +13°C° 0 mm 2 m/s 734 mmHg 73%
21:00 +12°C° 0 mm 2 m/s 734 mmHg 76%
22:00 +12°C° 0 mm 1 m/s 733 mmHg 76%
23:00 +11°C° 0 mm 1 m/s 733 mmHg 76%

Depois de amanhã, 30 Janeiro, Sábado

Tempo Temperatura Precipitação Vento Pressão Humidade
00:00 +11°C° 0 mm 1 m/s 732 mmHg 76%
01:00 +10°C° 0 mm 1 m/s 732 mmHg 77%
02:00 +10°C° 0 mm 1 m/s 731 mmHg 77%
03:00 +10°C° 0 mm 1 m/s 730 mmHg 78%
04:00 +9°C° 0 mm 2 m/s 729 mmHg 78%
05:00 +10°C° 0 mm 2 m/s 729 mmHg 79%
06:00 +10°C° 0 mm 3 m/s 728 mmHg 80%
07:00 +10°C° 0.2 mm 3 m/s 728 mmHg 80%
08:00 +11°C° 0.2 mm 4 m/s 728 mmHg 80%
09:00 +11°C° 0.2 mm 4 m/s 728 mmHg 80%
10:00 +11°C° 0.1 mm 6 m/s 728 mmHg 69%
11:00 +12°C° 0.1 mm 8 m/s 727 mmHg 58%
12:00 +13°C° 0.1 mm 11 m/s 727 mmHg 47%
13:00 +13°C° 0 mm 11 m/s 727 mmHg 47%
14:00 +12°C° 0 mm 12 m/s 726 mmHg 47%
15:00 +12°C° 0 mm 12 m/s 726 mmHg 46%
16:00 +11°C° 0 mm 10 m/s 726 mmHg 51%
17:00 +9°C° 0 mm 8 m/s 727 mmHg 56%
18:00 +8°C° 0 mm 7 m/s 727 mmHg 61%
19:00 +6°C° 0 mm 7 m/s 727 mmHg 63%
20:00 +6°C° 0 mm 8 m/s 727 mmHg 65%
21:00 +5°C° 0 mm 8 m/s 728 mmHg 67%
22:00 +5°C° 0 mm 8 m/s 728 mmHg 68%
23:00 +5°C° 0 mm 8 m/s 728 mmHg 69%

31 Janeiro, Domingo

Tempo Temperatura Precipitação Vento Pressão Humidade
00:00 +5°C° 0 mm 8 m/s 728 mmHg 71%
01:00 +4°C° 0 mm 8 m/s 727 mmHg 73%
02:00 +4°C° 0 mm 8 m/s 727 mmHg 75%
03:00 +4°C° 0 mm 8 m/s 727 mmHg 77%
04:00 +4°C° 0 mm 8 m/s 727 mmHg 77%
05:00 +4°C° 0 mm 8 m/s 727 mmHg 77%
06:00 +4°C° 0 mm 7 m/s 727 mmHg 77%
07:00 +5°C° 0 mm 7 m/s 727 mmHg 76%
08:00 +6°C° 0 mm 7 m/s 727 mmHg 74%
09:00 +6°C° 0 mm 7 m/s 727 mmHg 73%
10:00 +9°C° 0 mm 7 m/s 727 mmHg 69%
11:00 +11°C° 0 mm 8 m/s 727 mmHg 65%
12:00 +13°C° 0 mm 8 m/s 727 mmHg 61%
13:00 +13°C° 0 mm 9 m/s 727 mmHg 61%
14:00 +13°C° 0 mm 9 m/s 726 mmHg 62%
15:00 +15°C° 0 mm 9 m/s 726 mmHg 62%
16:00 +13°C° 0 mm 8 m/s 726 mmHg 65%
17:00 +12°C° 0 mm 7 m/s 726 mmHg 68%
18:00 +12°C° 0 mm 5 m/s 726 mmHg 71%
19:00 +12°C° 0 mm 5 m/s 726 mmHg 73%
20:00 +12°C° 0 mm 5 m/s 726 mmHg 75%
21:00 +10°C° 0 mm 5 m/s 726 mmHg 77%
22:00 +10°C° 0 mm 6 m/s 726 mmHg 74%
23:00 +10°C° 0 mm 7 m/s 726 mmHg 72%

1 Fevereiro, Segunda-feira

Tempo Temperatura Precipitação Vento Pressão Humidade
00:00 +10°C° 0 mm 7 m/s 726 mmHg 70%
01:00 +10°C° 0 mm 8 m/s 726 mmHg 69%
02:00 +10°C° 0 mm 9 m/s 726 mmHg 68%
03:00 +9°C° 0 mm 10 m/s 726 mmHg 66%
04:00 +8°C° 0 mm 10 m/s 726 mmHg 67%
05:00 +8°C° 0 mm 10 m/s 727 mmHg 67%
06:00 +8°C° 0 mm 10 m/s 727 mmHg 67%
07:00 +8°C° 0 mm 10 m/s 728 mmHg 65%
08:00 +9°C° 0 mm 10 m/s 729 mmHg 64%
09:00 +11°C° 0 mm 10 m/s 729 mmHg 62%
10:00 +12°C° 0 mm 10 m/s 730 mmHg 58%
11:00 +13°C° 0 mm 10 m/s 730 mmHg 53%
12:00 +14°C° 0 mm 11 m/s 730 mmHg 48%
13:00 +16°C° 0 mm 10 m/s 730 mmHg 48%
14:00 +16°C° 0 mm 10 m/s 730 mmHg 48%
15:00 +16°C° 0 mm 9 m/s 730 mmHg 48%
16:00 +15°C° 0 mm 9 m/s 731 mmHg 54%
17:00 +13°C° 0 mm 8 m/s 731 mmHg 60%
18:00 +11°C° 0 mm 8 m/s 732 mmHg 65%
19:00 +11°C° 0 mm 7 m/s 732 mmHg 68%
20:00 +10°C° 0 mm 6 m/s 733 mmHg 70%
21:00 +10°C° 0 mm 5 m/s 733 mmHg 72%
22:00 +10°C° 0 mm 4 m/s 733 mmHg 73%
23:00 +10°C° 0 mm 4 m/s 733 mmHg 74%

2 Fevereiro, Terça-feira

Tempo Temperatura Precipitação Vento Pressão Humidade
00:00 +10°C° 0 mm 3 m/s 733 mmHg 75%
01:00 +9°C° 0 mm 3 m/s 734 mmHg 76%
02:00 +9°C° 0 mm 2 m/s 734 mmHg 77%
03:00 +9°C° 0 mm 2 m/s 734 mmHg 79%
04:00 +8°C° 0 mm 2 m/s 734 mmHg 79%
05:00 +9°C° 0 mm 1 m/s 734 mmHg 80%
06:00 +9°C° 0 mm 1 m/s 734 mmHg 81%
07:00 +10°C° 0 mm 1 m/s 734 mmHg 79%
08:00 +10°C° 0 mm 1 m/s 734 mmHg 76%
09:00 +11°C° 0 mm 1 m/s 735 mmHg 73%
10:00 +13°C° 0 mm 1 m/s 735 mmHg 69%
11:00 +14°C° 0 mm 1 m/s 735 mmHg 64%
12:00 +15°C° 0 mm 2 m/s 734 mmHg 59%
13:00 +16°C° 0 mm 2 m/s 734 mmHg 59%
14:00 +16°C° 0 mm 2 m/s 734 mmHg 58%
15:00 +17°C° 0 mm 2 m/s 733 mmHg 58%
16:00 +15°C° 0 mm 2 m/s 733 mmHg 64%
17:00 +14°C° 0 mm 1 m/s 733 mmHg 70%
18:00 +12°C° 0 mm 1 m/s 733 mmHg 77%
19:00 +12°C° 0 mm 1 m/s 733 mmHg 78%
20:00 +11°C° 0 mm 1 m/s 733 mmHg 79%
21:00 +11°C° 0 mm 1 m/s 733 mmHg 80%
22:00 +10°C° 0 mm 1 m/s 733 mmHg 81%
23:00 +10°C° 0 mm 1 m/s 733 mmHg 82%
Mostrar mais

Necessitamos do seu Consentimento

A Meteoprog e os seus Fornecedores de Serviços podem armazenar e aceder a dados pessoais como cookies, identificadores do dispositivo ou outras tecnologias semelhantes existentes no seu dispositivo e processar estes dados para personalizar conteúdos e anúncios, assim como funcionalidades nas redes sociais e análise de tráfego.

  • Armazenar e/ou aceder a informações no seu dispositivo

    Os cookies, identificadores do dispositivo ou outras informações podem ser armazenados ou acedidos no seu dispositivo, para os fins acima indicados.

  • Anúncios e conteúdos personalizados, medição de anúncios e conteúdos, dados sobre o público-alvo e desenvolvimento de produtos

    Os anúncios e os conteúdos podem ser personalizados com base num perfil. Podem ser adicionados dados adicionais para uma maior personalização dos anúncios e dos conteúdos. A eficácia dos anúncios e dos conteúdos pode ser medida. Podem ser obtidas informações sobre o público que visualizou os anúncios e os conteúdos. Estes dados podem ser usados para desenvolver ou melhorar sistemas, softwares ou a experiência do utilizador.

Ao clicar em "Eu concordo”, permitirá o uso de cookies, identificadores do dispositivo e web beacons mencionados ou outras tecnologias semelhantes. As configurações do navegador do seu dispositivo podem ser alteradas.

Para certos fins, podem ser invocados interesses legítimos ao invés de consentimento. Pode ler mais informação sobre este assunto na nossa Política de Privacidade e Cookies.